This demonstration page uses our WeatherBlox Daily Observations layout. Learn more.

Left ArrowRight Arrow

39.08367, -84.50855

Hourly Observations for January 20, 2018

Temp ( °F °C ) Dew Point ( °F °C ) Humidity (%) Winds ( mph kmh ) Pressure ( in mb ) Visibility ( mi km ) Precip ( " mm )
12:53 am 00:53 Clear 33 0.6 22 -5.6 64 64 SSW 7 11 30.06 1018 10 16.0934 0 0
1:53 am 01:53 Partly Cloudy 32 0 22 -5.6 66 66 SSW 6 9 30.06 1018 10 16.0934 0 0
2:53 am 02:53 Clear 30 -1.1 22 -5.6 72 72 undefined N/A 30.07 1018 10 16.0934 0 0
3:53 am 03:53 Clear 31 -0.6 22 -5.6 69 69 VRB 3 6 30.07 1018 10 16.0934 0 0
4:53 am 04:53 Clear 35 1.7 24 -4.4 64 64 SSW 6 9 30.09 1019 10 16.0934 0 0
5:53 am 05:53 Clear 35 1.7 25 -3.9 67 67 S 10 17 30.09 1019 10 16.0934 0 0
6:53 am 06:53 Clear 35 1.7 25 -3.9 67 67 SSW 10 17 30.1 1019 10 16.0934 0 0
7:53 am 07:53 Sunny 34 1.1 24 -4.4 67 67 SSW 10 17 30.12 1020 10 16.0934 0 0
8:53 am 08:53 Sunny 37 2.8 25 -3.9 62 62 SSW 14 22 30.13 1020 10 16.0934 0 0
9:53 am 09:53 Sunny 40 4.4 24 -4.4 53 53 SW 15 24 30.13 1020 10 16.0934 0 0
10:53 am 10:53 Sunny 42 5.6 25 -3.9 51 51 SW 13 20 30.14 1021 10 16.0934 0 0
11:53 am 11:53 Sunny 44 6.7 27 -2.8 51 51 SW 14 22 30.13 1020 10 16.0934 0 0
12:53 pm 12:53 Sunny 46 7.8 28 -2.2 50 50 SW 15 24 30.11 1020 10 16.0934 0 0
1:53 pm 13:53 Partly Cloudy 48 8.9 31 -0.6 52 52 SSW 15 24 30.09 1019 10 16.0934 0 0
2:53 pm 14:53 Partly Cloudy 49 9.4 32 0 52 52 SSW 10 17 30.09 1019 10 16.0934 0 0
3:53 pm 15:53 Cloudy 47 8.3 33 0.6 59 59 SSW 8 13 30.11 1020 10 16.0934 0 0
4:53 pm 16:53 Cloudy 46 7.8 34 1.1 63 63 SSW 6 9 30.11 1020 10 16.0934 0 0
5:53 pm 17:53 Cloudy 45 7.2 34 1.1 66 66 SSW 8 13 30.12 1020 10 16.0934 0 0
6:53 pm 18:53 Cloudy 46 7.8 35 1.7 66 66 SSW 8 13 30.12 1020 10 16.0934 0 0
7:10 pm 19:10 Cloudy 45 7.2 36 2.2 71 71 SSW 8 13 30.12 1020 10 16.0934 0 0
7:53 pm 19:53 Cloudy 45 7.2 39 3.9 80 80 SSW 7 11 30.14 1021 10 16.0934 0 0
8:53 pm 20:53 Cloudy 44 6.7 39 3.9 83 83 SSW 7 11 30.14 1021 10 16.0934 0 0
9:53 pm 21:53 Cloudy with Light Rain 44 6.7 42 5.6 93 93 Calm 30.14 1021 6 9.65604 0 0.0254
10:53 pm 22:53 Cloudy with Light Rain 41 5 40 4.4 96 96 Calm 30.14 1021 10 16.0934 0 0.0254
11:53 pm 23:53 Cloudy 40 4.4 39 3.9 97 97 Calm 30.13 1020 10 16.0934 0 0.0254

Powered by AerisWeather